(346691) = 2007 RL137 = 2008 YA114

Discovered at Kitt Peak on 2008-12-29 by Spacewatch.

Orbit

Orbit type: Main Belt

Note: WebGL enabled browser required.

epoch2024-03-31.0
epoch JD2460400.5
perihelion date2022-04-21.28330
perihelion JD2459690.78330
argument of perihelion (°)280.90702
ascending node (°)110.19255
inclination (°)1.68864
eccentricity0.0794887
perihelion distance (AU)2.5933344
Tisserand w.r.t. Jupiter3.3
ΔV w.r.t. Earth (km/sec)10.1
semimajor axis (AU)2.8172760
mean anomaly (°)147.92609
mean daily motion (°/day)0.20842980
aphelion distance (AU)3.041
period (years)4.73
P-vector [x]0.85587072
P-vector [y]0.48527911
P-vector [z]0.17885605
Q-vector [x]-0.51644980
Q-vector [y]0.78342132
Q-vector [z]0.34573202
absolute magnitude17.09
phase slope0.15
uncertainty0
referenceMPEC 2024-F14
observations used179
oppositions14
arc length (days)7388
first opposition used2003
last opposition used2024
residual rms (arc-secs)0.80
perturbers coarse indicatorM-v
perturbers precise indicator003Ek
first observation date used2003-12-25.0
last observation date used2024-03-17.0
computer nameMPCLINUX
JD of orbit computation2456700.210558
perihelion JD uncertainty (days)3.2064E-04
argument of perihelion uncertainty (°)2.0461E-04
ascending node uncertainty (°)1.9039E-04
inclination uncertainty (°)5.0098E-06
eccentricity uncertainty 9.5388E-08
perihelion distance uncertainty (AU)2.7768E-07
Minimum Orbit Intersection Distances (in AU)
for orbit epoch: 2460400.5, reference: E2024-G17
Mercury2.25789
Venus1.86916
Earth1.59946
Mars1.11444
Jupiter2.31315
Saturn6.30567
Uranus15.4576
Neptune27.2293

Observations

183 total observations over interval: 2003 12 25.18850 – 2024 03 17.517123
These data are available for download (format description).

Date (UT) J2000 RA J2000 Dec Magn Location Ref
2003 12 25.18850 05 07 20.81 +21 41 08.8 22.0 V 691 – Steward Observatory, Kitt Peak-Spacewatch MPS 312657
2003 12 25.21571 05 07 19.30 +21 41 08.5 21.9 V 691 – Steward Observatory, Kitt Peak-Spacewatch MPS 312657
2003 12 25.24328 05 07 17.79 +21 41 08.3 21.4 V 691 – Steward Observatory, Kitt Peak-Spacewatch MPS 312657
2007 09 14.23679 23 48 09.10 -03 56 44.7 20.8 V G96 – Mt. Lemmon Survey MPS 216481
2007 09 14.24228 23 48 08.85 -03 56 46.6 20.8 V G96 – Mt. Lemmon Survey MPS 216481
2007 09 14.24779 23 48 08.56 -03 56 48.3 21.0 V G96 – Mt. Lemmon Survey MPS 216481
2007 09 15.61144 23 47 04.28 -04 04 17.0 21.8 C D35 – Lulin Observatory MPS 216481
2007 09 15.62957 23 47 03.45 -04 04 22.6 21.5 C D35 – Lulin Observatory MPS 216481
2007 09 15.64765 23 47 02.50 -04 04 29.2 21.8 C D35 – Lulin Observatory MPS 216481
2007 10 13.21863 23 27 20.41 -06 11 03.8 20.6 V G96 – Mt. Lemmon Survey MPS 312657
2007 10 13.22523 23 27 20.16 -06 11 05.2 20.3 V G96 – Mt. Lemmon Survey MPS 312657
2007 10 13.23172 23 27 19.94 -06 11 06.5 20.7 V G96 – Mt. Lemmon Survey MPS 312657
2007 10 13.23829 23 27 19.72 -06 11 07.8 20.6 V G96 – Mt. Lemmon Survey MPS 312657
2008 12 21.37900 07 37 55.05 +21 16 49.2 20.8 V G96 – Mt. Lemmon Survey MPS 312657
2008 12 21.38640 07 37 54.69 +21 16 50.7 21.3 V G96 – Mt. Lemmon Survey MPS 312657
2008 12 21.39377 07 37 54.33 +21 16 52.0 21.6 V G96 – Mt. Lemmon Survey MPS 312657
2008 12 21.40117 07 37 54.01 +21 16 52.8 21.2 V G96 – Mt. Lemmon Survey MPS 312657
2008 12 29.24916 07 31 16.10 +21 36 21.2 20.4 V 691 – Steward Observatory, Kitt Peak-Spacewatch MPS 271906
2008 12 29.26752 07 31 15.10 +21 36 24.3 20.6 V 691 – Steward Observatory, Kitt Peak-Spacewatch MPS 271906
2008 12 29.28564 07 31 14.09 +21 36 27.1 20.6 V 691 – Steward Observatory, Kitt Peak-Spacewatch MPS 271906
2009 01 02.34468 07 27 28.40 +21 46 53.3 20.9 V G96 – Mt. Lemmon Survey MPS 271906
2009 01 02.35281 07 27 27.93 +21 46 54.6 20.9 V G96 – Mt. Lemmon Survey MPS 271906
2009 01 02.36091 07 27 27.43 +21 46 55.6 20.7 V G96 – Mt. Lemmon Survey MPS 271906
2010 04 09.31941 13 05 23.35 -04 14 11.0 20.9 V G96 – Mt. Lemmon Survey MPS 322309
2010 04 09.32782 13 05 22.95 -04 14 08.6 20.9 V G96 – Mt. Lemmon Survey MPS 322309
2010 04 09.33626 13 05 22.52 -04 14 06.3 20.9 V G96 – Mt. Lemmon Survey MPS 322309
2010 04 09.34470 13 05 22.09 -04 14 03.3 20.5 V G96 – Mt. Lemmon Survey MPS 322309
2012 10 06.36890 01 53 17.98 +08 44 21.7 20.3 V G96 – Mt. Lemmon Survey MPS 434187
2012 10 06.37950 01 53 17.44 +08 44 19.3 20.6 V G96 – Mt. Lemmon Survey MPS 434187
2012 10 06.38999 01 53 16.98 +08 44 16.1 20.6 V G96 – Mt. Lemmon Survey MPS 434187
2012 10 06.40059 01 53 16.44 +08 44 13.5 20.6 V G96 – Mt. Lemmon Survey MPS 434187
2012 10 08.423862 01 51 45.300 +08 35 11.46 20.9 r F51 – Pan-STARRS 1, Haleakala MPS 435263
2012 10 08.435960 01 51 44.726 +08 35 08.00 21.0 r F51 – Pan-STARRS 1, Haleakala MPS 435263
2012 10 08.501312 01 51 41.583 +08 34 50.30 20.7 i F51 – Pan-STARRS 1, Haleakala MPS 435263
2012 10 08.514429 01 51 40.951 +08 34 46.83 20.7 i F51 – Pan-STARRS 1, Haleakala MPS 435263
2012 10 11.478455 01 49 21.691 +08 21 10.22 20.9 g F51 – Pan-STARRS 1, Haleakala MPS 435263
2012 10 11.491127 01 49 21.062 +08 21 06.62 20.6 g F51 – Pan-STARRS 1, Haleakala MPS 435263
2012 10 16.39774 01 45 20.48 +07 58 03.9 20.2 V G96 – Mt. Lemmon Survey MPS 435263
2012 10 16.40405 01 45 20.16 +07 58 01.8 20.1 V G96 – Mt. Lemmon Survey MPS 435263
2012 10 16.41042 01 45 19.83 +07 58 00.4 20.0 V G96 – Mt. Lemmon Survey MPS 435263
2012 10 16.41678 01 45 19.51 +07 57 58.5 19.9 V G96 – Mt. Lemmon Survey MPS 435264
2012 11 06.18369 01 28 52.78 +06 29 35.1 19.3 V G96 – Mt. Lemmon Survey MPS 439584
2012 11 06.18909 01 28 52.39 +06 29 34.6 20.1 V G96 – Mt. Lemmon Survey MPS 439584
2012 11 06.19454 01 28 52.17 +06 29 33.2 20.2 V G96 – Mt. Lemmon Survey MPS 439584
2012 11 06.20006 01 28 51.92 +06 29 31.9 20.4 V G96 – Mt. Lemmon Survey MPS 439584
2012 11 06.284765 01 28 48.558 +06 29 15.84 20.5 w F51 – Pan-STARRS 1, Haleakala MPS 439584
2012 11 06.299652 01 28 47.918 +06 29 12.90 20.6 w F51 – Pan-STARRS 1, Haleakala MPS 439584
2012 11 06.314604 01 28 47.276 +06 29 09.82 20.6 w F51 – Pan-STARRS 1, Haleakala MPS 439584
2012 11 06.329537 01 28 46.638 +06 29 06.78 20.5 w F51 – Pan-STARRS 1, Haleakala MPS 439584
2014 01 23.22320 09 23 09.21 +16 21 43.5   691 – Steward Observatory, Kitt Peak-Spacewatch MPS 498388
2014 01 23.24093 09 23 08.31 +16 21 48.5   691 – Steward Observatory, Kitt Peak-Spacewatch MPS 498388
2014 01 23.25866 09 23 07.45 +16 21 53.3   691 – Steward Observatory, Kitt Peak-Spacewatch MPS 498388
2014 01 24.37724 09 22 12.401 +16 26 53.09 20.8 w F51 – Pan-STARRS 1, Haleakala MPS 500167
2014 01 24.39041 09 22 11.722 +16 26 56.73 20.6 w F51 – Pan-STARRS 1, Haleakala MPS 500167
2014 01 24.40360 09 22 11.055 +16 27 00.19 20.8 w F51 – Pan-STARRS 1, Haleakala MPS 500167
2014 01 24.41682 09 22 10.374 +16 27 03.91 20.7 w F51 – Pan-STARRS 1, Haleakala MPS 500167
2014 02 06.26727 09 10 55.60 +17 25 14.6 20.6 V G96 – Mt. Lemmon Survey MPS 500936
2014 02 06.27235 09 10 55.32 +17 25 16.1 20.0 V G96 – Mt. Lemmon Survey MPS 500936
2014 02 06.27742 09 10 55.05 +17 25 17.6 20.1 V G96 – Mt. Lemmon Survey MPS 500936
2014 02 06.28249 09 10 54.74 +17 25 19.3 19.7 V G96 – Mt. Lemmon Survey MPS 500936
2014 02 08.18299 09 09 13.34 +17 33 39.1 21.1 V 691 – Steward Observatory, Kitt Peak-Spacewatch MPS 501596
2014 02 08.19817 09 09 12.47 +17 33 43.6 21.1 V 691 – Steward Observatory, Kitt Peak-Spacewatch MPS 501596
2014 02 08.21335 09 09 11.65 +17 33 47.2 20.6 V 691 – Steward Observatory, Kitt Peak-Spacewatch MPS 501596
2015 03 18.53049 14 53 33.782 -14 16 49.27 22.0 w F51 – Pan-STARRS 1, Haleakala MPS 592021
2015 03 18.54326 14 53 33.598 -14 16 48.14 21.9 w F51 – Pan-STARRS 1, Haleakala MPS 592021
2015 03 18.56872 14 53 33.237 -14 16 45.68 21.8 w F51 – Pan-STARRS 1, Haleakala MPS 592021
2015 03 19.51200 14 53 20.615 -14 15 18.38 21.6 w F51 – Pan-STARRS 1, Haleakala MPS 592021
2015 03 19.52459 14 53 20.427 -14 15 17.01 21.7 w F51 – Pan-STARRS 1, Haleakala MPS 592021
2015 03 19.56724 14 53 19.769 -14 15 13.11 21.8 w F51 – Pan-STARRS 1, Haleakala MPS 592021
2015 04 11.28077 14 42 26.24 -13 16 15.9 21.1 V 691 – Steward Observatory, Kitt Peak-Spacewatch MPS 600532
2015 04 11.29962 14 42 25.44 -13 16 12.0 21.2 V 691 – Steward Observatory, Kitt Peak-Spacewatch MPS 600532
2015 04 11.31844 14 42 24.64 -13 16 08.5 21.3 V 691 – Steward Observatory, Kitt Peak-Spacewatch MPS 600532
2015 04 23.39431 14 33 10.839 -12 30 53.61 21.0 w F51 – Pan-STARRS 1, Haleakala MPS 603031
2015 04 23.40683 14 33 10.199 -12 30 50.59 21.0 w F51 – Pan-STARRS 1, Haleakala MPS 603031
2015 04 23.41932 14 33 09.577 -12 30 47.68 21.0 w F51 – Pan-STARRS 1, Haleakala MPS 603031
2015 04 23.43180 14 33 08.940 -12 30 44.71 20.8 w F51 – Pan-STARRS 1, Haleakala MPS 603031
2016 07 04.49626 20 49 46.996 -18 12 28.43 21.3 w F51 – Pan-STARRS 1, Haleakala MPS 719245
2016 07 04.50696 20 49 46.597 -18 12 30.20 21.4 w F51 – Pan-STARRS 1, Haleakala MPS 719245
2016 07 04.51766 20 49 46.209 -18 12 32.35 21.4 w F51 – Pan-STARRS 1, Haleakala MPS 719245
2016 07 04.52838 20 49 45.800 -18 12 34.30 21.4 w F51 – Pan-STARRS 1, Haleakala MPS 719245
2016 07 12.31227 20 44 36.93 -18 37 53.6 20.4 V G96 – Mt. Lemmon Survey MPS 721190
2016 07 12.31944 20 44 36.54 -18 37 56.3 21.9 V G96 – Mt. Lemmon Survey MPS 721190
2016 07 12.32663 20 44 36.23 -18 37 57.2 20.6 V G96 – Mt. Lemmon Survey MPS 721190
2016 07 12.33379 20 44 35.93 -18 37 58.5 21.1 V G96 – Mt. Lemmon Survey MPS 721190
2016 07 16.33824 20 41 33.75 -18 52 12.3 21.8 V G96 – Mt. Lemmon Survey MPS 721190
2016 07 16.34734 20 41 33.30 -18 52 14.2 21.6 V G96 – Mt. Lemmon Survey MPS 721190
2016 07 16.35187 20 41 33.06 -18 52 15.3 20.3 V G96 – Mt. Lemmon Survey MPS 721190
2016 08 08.41119 20 21 58.441 -20 15 36.76 21.4 w F51 – Pan-STARRS 1, Haleakala MPS 724884
2016 08 08.42232 20 21 57.859 -20 15 38.74 21.4 w F51 – Pan-STARRS 1, Haleakala MPS 724884
2016 08 08.43346 20 21 57.291 -20 15 40.81 21.6 w F51 – Pan-STARRS 1, Haleakala MPS 724884
2016 08 27.31565 20 09 03.997 -21 04 30.58 21.0 w F51 – Pan-STARRS 1, Haleakala MPS 727430
